Theta_e
343 338 342 342 335 335 340 339 336 335 331 330 329 328 331 329 325 325 328 333 336 339 340 341 342 342 342 342 342 341 340 340 339 338 336 336 335 333 329 329 335 337 338 340 339 340 341 340 341 340 340 340 339 339 338 337 336 334 336 337 336 336 336 336 336 336 337 336 337 336 333 333 333 331 330 330 330 328 328 329 330 330 331 331 331
343 339 341 341 335 333 339 340 337 335 331 330 329 329 331 330 323 322 323 325 329 334 335 337 340 341 341 340 340 338 337 337 336 334 332 332 332 330 330 334 337 337 337 337 338 339 339 339 339 339 339 339 339 339 338 336 335 335 336 335 335 335 335 335 335 336 336 336 335 334 333 333 333 332 331 332 331 329 329 329 329 329 329 331 331
341 342 342 343 336 334 341 340 337 335 332 330 329 329 331 331 325 321 322 321 323 328 330 332 335 337 337 335 333 331 329 329 329 329 330 331 332 330 332 337 339 338 337 335 336 337 338 338 338 338 338 338 338 338 337 335 335 335 334 333 333 334 334 333 334 334 334 334 334 334 334 334 333 333 332 331 330 329 329 329 329 328 329 330 330
340 342 343 345 339 337 342 341 338 336 332 330 329 329 331 332 327 322 322 322 321 323 328 329 330 330 328 326 325 324 325 327 330 333 336 337 337 336 335 337 339 340 339 337 336 335 335 337 337 337 337 337 338 337 336 335 334 332 331 332 333 334 332 331 331 332 332 333 332 333 334 334 333 332 331 331 331 330 330 330 330 329 329 329 329
340 341 342 343 340 339 341 340 339 335 332 330 329 329 331 333 331 325 323 324 321 320 323 324 324 324 325 326 328 331 333 334 336 338 339 340 340 338 336 337 339 339 339 339 338 336 335 336 336 336 336 337 336 336 335 334 332 330 329 331 331 331 330 329 329 329 329 330 331 331 332 333 333 332 332 331 331 331 331 331 331 330 329 329 328
339 340 340 342 341 340 340 341 339 336 332 330 329 329 332 335 334 330 327 326 324 321 320 321 322 324 328 331 333 336 338 340 340 339 339 340 339 338 336 337 337 337 338 338 338 337 334 335 336 336 334 335 335 335 334 333 331 330 330 330 330 329 330 329 328 327 328 330 332 332 333 333 332 332 332 331 331 331 331 330 330 330 330 329 328
340 342 343 342 341 340 340 341 339 335 331 329 329 329 333 335 335 334 331 329 327 326 324 325 326 328 332 333 333 334 338 340 339 339 339 340 340 339 338 337 337 338 338 338 339 338 336 333 334 336 333 334 335 333 332 332 331 331 332 332 332 331 331 331 330 328 327 330 331 332 332 332 333 333 333 332 331 331 330 330 330 331 330 330 329
341 343 342 341 340 340 340 340 339 336 331 330 329 329 333 335 335 335 335 332 330 328 328 329 330 332 333 333 332 333 335 336 336 336 338 339 340 341 340 339 339 339 336 337 339 339 339 334 333 336 335 335 335 333 332 332 332 332 332 334 335 333 332 332 331 328 327 329 331 332 332 333 334 333 334 333 332 332 331 330 330 330 330 329 329
341 341 340 342 343 342 342 341 339 335 331 329 330 330 333 335 334 335 335 335 333 330 329 330 331 332 333 333 333 333 332 332 332 335 337 339 340 341 340 339 339 338 334 335 338 337 338 336 333 335 336 336 335 335 334 334 333 332 333 334 334 334 333 332 332 330 327 328 331 332 333 333 333 333 334 333 332 331 330 329 329 330 329 329 329
342 342 342 344 345 344 343 342 339 334 331 329 330 330 332 333 333 334 335 336 337 335 333 332 332 332 334 334 333 333 332 330 330 334 337 339 340 340 339 338 338 337 333 334 336 334 334 335 334 334 336 337 335 335 335 334 335 335 335 333 333 335 334 333 334 331 328 328 330 331 332 332 331 331 332 331 331 330 329 330 330 329 329 330 329
343 344 344 345 344 344 344 343 339 334 330 330 330 330 331 332 333 333 334 336 338 338 337 335 333 332 333 333 332 332 332 332 332 335 338 339 340 339 338 336 335 335 333 334 335 333 332 333 335 334 335 336 335 335 333 333 334 335 335 334 333 335 335 335 334 333 330 329 330 331 331 330 330 330 332 332 331 330 330 330 330 330 330 330 329
343 344 345 345 344 344 344 343 339 334 331 329 331 331 331 332 332 333 334 336 338 339 338 336 335 333 332 332 332 333 334 335 335 337 339 338 339 338 338 335 333 333 333 334 335 334 332 331 332 332 333 333 334 333 333 333 333 334 335 334 332 333 334 334 335 334 331 329 330 331 331 331 331 332 332 332 331 331 330 330 330 330 329 328 329
343 344 345 345 344 343 343 342 338 334 330 329 332 332 332 332 333 333 334 336 337 338 339 338 336 334 333 333 334 335 336 338 338 338 338 338 338 337 336 334 333 332 333 334 334 334 333 331 331 331 332 332 332 333 333 332 332 332 332 332 331 332 333 334 335 334 332 329 330 331 331 332 332 333 332 331 331 331 330 331 330 330 328 328 328
344 344 344 344 343 343 342 342 339 333 330 329 332 334 334 334 335 335 334 335 336 338 338 339 338 338 337 337 337 337 337 337 337 336 336 336 335 334 334 333 333 333 333 335 336 335 333 331 330 331 333 332 332 332 332 331 331 330 330 331 332 333 334 335 335 334 332 329 330 331 331 331 332 332 332 331 331 331 330 331 330 329 329 328 328
345 344 343 342 342 342 341 341 339 334 330 329 331 334 335 335 337 335 333 335 337 338 339 339 339 339 339 338 337 336 336 335 334 334 333 333 332 331 332 332 332 333 334 335 336 334 332 330 330 330 331 332 331 331 331 330 329 329 330 332 334 335 335 336 335 334 331 329 329 329 329 329 331 332 332 332 331 331 330 330 330 330 329 328 327
344 344 343 342 341 341 341 341 339 335 330 329 330 333 335 336 336 334 333 335 338 339 339 339 339 338 336 335 334 334 334 334 334 333 332 332 331 330 330 330 332 333 333 334 334 332 330 328 329 329 329 329 328 329 329 328 328 329 331 332 334 334 335 335 334 333 330 329 328 327 327 327 329 332 332 332 331 331 330 330 330 329 328 327 326
344 343 342 341 340 341 340 340 339 336 331 330 331 333 335 335 333 332 334 336 338 339 338 338 336 335 334 334 334 334 334 335 334 333 333 332 330 329 329 330 331 331 332 333 332 329 328 328 329 329 329 328 327 327 327 327 327 329 331 332 334 334 334 334 333 332 330 328 327 327 327 327 330 332 332 331 331 330 330 330 329 329 327 326 325
344 343 342 341 340 339 338 339 339 336 332 332 334 336 335 333 331 333 336 338 339 338 336 334 333 333 333 334 335 335 335 335 335 334 333 332 331 330 330 330 329 328 330 330 329 327 328 328 328 328 329 328 327 326 326 326 328 330 332 333 333 334 334 334 333 332 330 329 327 327 326 327 330 332 332 331 330 330 330 330 329 329 327 326 326
343 342 341 341 340 339 336 337 339 336 335 336 337 336 334 332 333 335 337 338 337 335 333 332 333 333 334 334 335 335 334 334 334 334 333 332 332 331 329 327 326 329 330 329 327 326 328 328 327 327 328 328 328 327 327 327 329 331 332 333 333 334 334 333 333 331 331 330 327 327 327 328 329 331 332 330 330 330 330 329 329 328 327 327 326
342 341 341 342 341 340 339 338 338 337 337 338 337 336 334 333 334 337 338 337 336 333 332 332 334 335 335 335 335 335 334 334 334 333 332 332 331 332 330 327 327 330 332 330 328 326 327 328 327 327 327 326 327 327 328 328 329 330 331 333 333 333 334 334 333 331 331 330 328 327 327 327 328 331 331 330 330 330 329 329 329 328 327 328 327
341 341 342 342 341 340 339 338 339 339 339 339 337 335 334 335 337 338 338 336 334 332 332 333 334 334 335 334 335 335 335 335 334 333 332 332 331 331 331 329 329 332 332 332 329 327 327 327 327 327 327 326 327 326 327 328 329 329 330 333 333 333 334 333 333 332 331 330 328 328 328 327 327 330 332 331 331 329 328 328 329 328 328 328 326
341 342 342 341 340 339 338 339 339 339 340 339 336 334 335 338 338 338 337 334 333 333 333 333 333 334 334 333 333 334 335 335 335 334 332 332 332 332 332 330 330 332 332 332 330 328 326 327 327 327 327 326 327 327 327 327 328 328 329 333 333 332 333 333 333 332 332 330 329 328 327 327 328 331 332 331 331 329 327 328 329 328 328 328 327
340 341 341 341 339 338 338 338 338 338 337 336 334 335 337 338 338 338 336 333 333 333 332 332 332 333 333 332 332 333 334 334 334 335 333 332 332 332 333 332 332 332 332 332 331 330 328 327 328 328 328 327 327 327 327 327 327 327 329 333 333 332 333 332 332 332 332 331 330 328 326 326 327 331 331 331 331 328 327 328 328 328 328 328 327
339 340 340 339 337 336 337 336 337 336 334 332 332 335 338 338 338 337 335 333 334 333 332 332 331 331 332 332 333 333 333 334 334 335 335 333 331 331 333 333 333 332 331 332 332 332 330 329 328 328 329 328 328 327 327 327 326 326 327 332 334 332 332 332 332 332 332 331 329 328 326 325 327 331 332 331 331 329 328 328 328 327 327 328 327
339 339 339 338 337 336 337 336 337 336 333 331 332 335 337 338 337 335 334 333 332 332 331 331 331 331 332 333 333 332 333 332 334 335 335 334 332 331 332 333 333 332 331 331 331 332 331 330 329 329 329 329 329 328 327 326 326 326 327 331 334 333 332 332 332 332 332 331 329 328 325 324 327 330 332 331 330 329 329 328 328 327 327 328 327
339 340 339 339 338 337 337 337 337 336 333 330 331 335 336 336 333 331 331 331 331 330 330 331 331 332 333 333 333 332 332 332 333 334 334 334 333 332 332 332 333 333 333 331 331 331 331 330 329 329 329 329 329 328 327 327 327 327 327 330 333 334 333 333 332 332 332 331 330 327 325 324 325 329 331 331 330 329 329 328 327 327 326 327 327
339 339 338 338 338 337 338 337 337 335 332 330 331 333 333 331 329 329 329 329 330 330 331 331 332 333 332 332 332 332 331 332 332 332 333 333 334 334 332 333 333 334 333 332 331 331 331 330 330 329 329 329 329 328 327 327 327 327 328 329 331 332 333 333 333 332 332 331 330 326 324 324 325 328 330 331 330 330 329 328 327 327 326 326 327
338 338 338 338 337 337 337 336 335 332 330 330 330 330 328 327 329 330 330 329 331 331 332 332 332 333 333 332 332 331 332 332 331 332 332 333 335 335 334 333 334 334 333 332 332 331 331 330 329 329 329 329 328 327 327 327 328 328 328 328 329 330 332 333 333 332 332 330 329 326 323 323 324 326 328 330 330 330 329 328 328 327 326 326 326
336 336 337 335 334 336 336 335 333 330 328 328 328 328 327 328 329 330 330 330 331 332 333 333 333 333 333 333 332 331 332 332 332 332 332 333 334 335 334 334 333 333 333 332 331 330 330 330 330 331 330 330 327 327 327 328 328 328 328 328 328 328 330 332 333 332 331 330 329 326 323 323 324 325 326 329 329 329 329 329 328 327 327 326 325
337 336 335 334 333 334 335 334 331 328 328 327 327 328 328 328 329 329 329 331 332 333 334 334 334 334 333 333 333 333 333 333 333 333 333 334 334 334 334 334 333 333 333 333 330 329 330 331 331 331 332 331 328 327 328 328 329 329 329 329 328 328 328 331 333 332 331 330 329 326 324 323 323 325 325 327 328 329 329 329 328 328 327 326 326
337 334 334 336 334 334 334 332 329 327 327 327 327 327 328 328 328 329 331 331 332 334 334 334 334 334 334 334 334 334 333 334 334 334 333 334 333 333 333 333 333 332 332 331 330 330 330 331 331 331 331 331 330 329 329 329 329 329 329 329 329 328 328 330 331 332 331 330 329 326 324 323 324 325 325 325 327 330 329 328 328 328 328 326 326
334 332 334 337 336 334 333 332 329 328 328 329 329 329 329 329 330 331 332 332 332 334 334 334 334 334 335 335 335 334 334 334 335 334 334 334 334 334 333 333 333 332 332 331 331 332 332 331 331 331 331 331 331 330 330 330 329 329 329 329 329 329 328 329 330 331 331 331 330 327 325 325 324 324 325 325 326 329 329 328 328 328 327 326 326
334 334 337 338 338 337 334 332 331 330 331 332 334 334 334 333 333 332 332 333 334 335 336 335 336 336 336 336 335 334 334 334 335 334 334 334 333 333 333 333 333 332 332 332 332 333 332 332 332 332 331 330 331 331 330 330 329 328 328 329 329 329 329 328 329 329 331 331 330 328 326 326 326 324 325 325 325 328 329 329 328 327 327 326 326
336 338 340 340 341 340 337 334 334 336 336 336 338 339 338 336 335 335 335 336 337 338 338 337 337 336 336 335 335 335 334 334 333 334 334 334 333 332 332 333 333 332 332 332 332 332 333 332 332 331 331 330 330 330 330 330 329 328 328 328 329 329 329 328 328 329 330 331 331 329 328 327 327 325 325 325 325 327 329 329 329 328 328 326 325
338 339 341 342 341 341 340 339 337 339 339 340 341 340 338 338 337 336 336 338 338 338 338 337 336 335 335 335 334 334 334 333 333 334 334 334 334 333 333 333 333 333 333 332 332 332 332 332 331 331 330 330 329 329 329 329 328 327 327 328 329 329 329 328 328 328 329 331 331 330 330 329 328 326 325 325 325 326 328 329 329 328 328 327 325
338 339 340 341 342 342 342 341 340 340 341 341 340 339 337 336 336 337 337 337 336 336 335 335 334 334 334 335 334 334 334 333 333 333 333 333 333 333 333 333 333 333 333 332 332 332 332 331 330 330 330 331 329 328 329 328 327 327 327 328 328 328 328 327 327 327 328 330 331 330 330 330 329 328 326 326 326 326 327 327 328 328 328 328 326
336 338 340 341 342 342 342 342 341 341 341 340 338 337 336 335 336 337 336 335 334 333 333 333 333 333 333 334 334 334 333 332 332 333 333 333 333 333 333 332 333 332 332 332 331 331 331 331 331 330 330 330 329 328 328 327 326 327 327 328 328 328 327 327 327 327 328 329 331 331 330 330 330 329 328 327 326 326 327 327 327 328 328 328 328
335 335 339 341 341 342 342 342 342 342 341 339 337 335 335 335 336 336 334 332 331 331 332 332 332 332 333 333 333 333 332 332 332 332 333 333 332 332 332 332 332 332 332 331 331 331 331 331 331 330 331 330 328 328 327 326 326 327 327 328 328 328 328 328 327 327 327 328 329 330 330 330 330 330 329 328 327 327 327 327 327 327 327 328 328
335 336 338 339 340 341 342 342 342 342 340 338 336 334 335 335 334 333 331 331 331 331 331 332 332 331 331 331 331 331 331 331 331 331 331 332 332 332 332 331 331 332 332 331 332 331 332 332 331 330 331 329 327 327 327 326 326 327 328 328 328 328 328 328 328 328 327 328 328 329 329 330 330 330 330 329 328 328 328 327 328 327 327 327 327
334 334 337 338 339 341 341 342 342 340 339 337 335 334 334 334 332 331 331 331 331 330 330 330 329 330 329 329 329 329 329 329 329 330 330 331 331 331 331 331 331 331 331 331 331 331 332 332 331 331 330 328 327 327 327 327 328 328 328 328 328 329 329 328 328 328 328 328 327 328 328 329 330 330 330 330 329 329 329 328 328 328 327 327 327
330 331 334 337 339 341 342 341 341 339 337 336 335 332 332 332 331 330 330 331 330 328 328 328 327 327 327 327 327 326 327 327 327 328 328 329 330 330 330 330 330 330 330 330 330 330 330 331 331 331 329 327 328 328 327 328 328 328 327 327 327 327 328 328 328 328 328 328 328 328 328 328 329 330 330 330 329 329 329 329 329 328 328 328 328
329 330 331 335 337 340 342 341 339 337 336 336 334 331 330 330 329 329 330 330 329 329 328 327 326 325 324 324 324 324 324 326 327 326 326 327 328 329 329 329 329 329 329 329 330 330 329 330 331 330 329 327 327 328 327 327 327 327 327 326 327 327 326 326 326 328 328 328 328 329 328 328 328 329 330 329 329 329 328 328 329 329 328 329 329
329 330 330 332 334 337 340 340 337 336 337 336 333 329 328 328 328 329 328 328 329 328 327 327 326 324 324 323 322 322 322 325 326 325 325 326 327 328 328 328 329 329 328 328 330 330 330 330 330 330 329 327 327 327 327 327 326 327 326 326 328 328 327 327 326 328 328 328 328 328 328 328 328 328 329 329 328 329 328 327 328 328 328 328 328
329 330 330 331 333 336 339 339 336 336 336 335 331 327 325 327 328 328 327 327 327 327 326 326 324 322 322 321 320 321 321 322 324 324 325 326 326 327 327 327 328 328 327 328 329 331 331 330 330 329 328 327 327 326 326 327 327 326 326 326 325 326 329 328 327 328 328 328 327 327 328 328 328 329 328 328 328 328 329 328 328 328 328 328 328
330 330 329 331 332 335 338 337 335 335 334 332 328 325 324 325 328 328 327 327 326 325 324 323 322 321 320 319 319 320 321 321 322 323 323 325 325 325 326 326 326 327 327 327 327 329 330 329 329 329 328 327 326 325 325 325 326 326 326 326 326 329 331 328 327 329 328 329 328 326 328 328 328 328 327 326 327 326 326 326 325 327 327 327 328
330 330 330 331 332 334 337 336 334 332 330 328 325 324 323 323 325 326 326 326 324 323 323 322 321 320 320 319 319 319 319 320 321 322 322 323 324 324 325 324 324 325 326 326 326 326 328 329 329 329 328 328 326 326 325 325 326 326 326 327 327 329 330 327 327 328 326 327 329 328 328 329 328 327 326 325 326 325 325 325 325 326 327 327 327
330 331 330 330 331 333 335 334 331 330 328 325 324 324 323 322 323 324 324 324 323 323 322 321 320 320 320 319 319 319 319 319 319 321 322 322 322 324 324 324 323 324 324 325 326 326 327 327 328 328 328 328 328 327 326 325 327 327 327 327 326 327 327 327 328 328 326 325 325 325 324 325 324 324 323 324 324 325 326 328 328 327 327 327 327
330 331 330 329 329 330 330 330 329 327 326 325 324 323 321 321 323 323 323 323 322 322 321 321 320 320 319 319 319 319 319 318 318 320 322 321 321 322 324 323 323 323 323 324 324 325 326 327 327 327 327 327 328 328 326 326 327 326 326 327 327 327 326 326 325 326 327 325 323 321 317 316 318 319 321 322 323 325 326 327 328 328 327 327 327
330 331 330 328 327 326 325 325 326 325 324 324 323 322 320 321 323 323 322 321 320 319 320 320 320 320 320 319 318 319 319 318 318 320 321 320 320 321 323 323 322 322 322 322 322 323 324 325 326 327 327 327 327 327 327 326 326 325 325 325 326 325 325 326 325 323 324 326 326 322 316 313 314 315 317 319 321 323 324 326 326 327 327 327 326
330 329 328 326 325 324 323 323 323 323 323 323 323 322 321 321 322 322 321 319 317 318 320 320 320 319 319 318 318 318 317 318 319 320 320 320 320 321 322 322 322 321 321 320 321 322 323 324 325 325 325 325 324 324 324 324 325 325 324 324 324 321 321 322 321 321 321 321 323 321 316 313 312 311 310 312 314 317 320 322 324 325 326 326 326
327 326 326 327 326 326 325 324 322 322 322 322 322 322 322 322 322 322 321 319 316 317 319 320 319 318 318 318 318 317 316 316 317 318 318 317 317 318 319 320 320 320 319 319 319 320 322 322 321 321 321 321 320 319 320 320 322 324 325 325 324 321 320 319 319 320 318 317 319 318 314 313 312 311 310 308 308 310 313 315 317 318 320 321 323
Wind_Speed
21 22 20 20 21 22 22 23 22 22 22 22 21 21 22 23 25 26 28 28 29 30 30 29 27 27 26 26 27 26 25 23 22 22 21 19 18 17 17 18 18 18 19 18 17 17 16 15 14 13 13 13 14 14 15 17 18 18 19 18 17 17 16 17 17 18 17 15 15 14 15 15 15 15 15 15 15 15 16 15 15 16 16 16 15
23 22 21 20 20 22 23 23 23 23 22 21 21 21 22 23 25 25 26 26 27 28 28 27 25 26 25 26 26 25 24 23 22 21 20 19 17 16 17 18 18 18 18 17 17 17 16 16 15 14 14 14 15 14 15 17 18 18 17 17 17 17 16 17 18 18 16 14 14 14 15 16 16 15 15 15 15 15 15 15 14 16 16 15 15
24 21 21 20 20 22 22 23 23 23 22 22 22 22 22 23 24 24 24 25 25 25 26 26 26 26 26 26 25 24 23 22 21 20 20 19 19 18 18 18 17 16 16 16 17 16 15 15 15 14 14 14 15 15 15 16 17 17 17 17 17 16 15 16 17 17 16 15 15 16 16 16 16 15 15 14 15 15 15 14 14 16 16 15 15
25 22 21 20 20 22 22 23 23 23 23 23 23 22 22 23 23 23 23 23 24 25 25 26 26 27 26 26 25 24 23 22 21 19 20 19 19 18 19 18 17 16 15 15 15 15 15 14 14 14 14 14 15 14 15 15 16 18 18 18 17 16 15 15 16 16 15 15 16 16 16 16 16 15 15 15 15 15 15 15 14 15 15 15 16
26 23 22 21 20 23 23 23 24 24 24 23 23 23 23 23 23 23 23 22 23 24 25 26 26 26 25 24 23 22 21 20 19 18 18 18 17 18 18 18 17 16 15 14 14 14 14 14 14 14 14 14 14 14 15 16 17 19 19 18 17 16 16 16 15 15 14 15 16 17 17 16 16 15 15 14 15 15 15 15 15 14 14 14 15
26 24 23 22 21 23 24 24 24 24 24 24 23 23 24 23 23 22 22 22 22 22 23 24 25 24 23 22 21 21 20 19 18 17 17 18 18 18 18 18 17 16 15 14 13 13 14 15 14 14 14 14 14 15 16 17 19 20 19 18 17 17 16 15 15 15 15 16 17 17 17 16 15 14 14 13 14 14 14 15 15 14 13 14 15
25 24 23 22 23 25 25 26 24 24 25 24 24 23 24 23 23 22 21 21 20 21 21 22 22 22 21 20 20 20 19 19 18 17 16 17 17 17 17 17 17 16 15 13 12 14 15 15 14 14 14 15 14 15 18 20 20 19 18 16 15 15 15 14 14 14 15 16 16 16 16 16 15 13 12 13 14 13 13 14 14 14 14 14 14
25 24 23 23 24 26 27 28 26 25 25 24 24 23 23 22 22 21 20 20 20 20 20 20 20 20 20 19 19 19 19 18 17 16 16 15 16 16 16 15 15 15 13 11 12 14 14 14 13 13 14 14 14 16 18 19 18 17 16 15 13 12 13 13 12 12 13 15 15 15 15 16 14 13 12 12 13 13 13 13 14 13 14 15 14
25 24 23 24 25 26 26 27 27 27 26 25 24 23 22 21 20 20 19 19 19 19 19 19 19 20 20 19 19 18 18 17 16 15 15 15 15 16 15 15 14 12 11 11 12 13 12 11 11 13 14 14 15 16 16 16 14 14 13 12 11 9 10 10 10 10 11 13 14 14 14 14 14 13 12 11 12 12 12 13 14 14 14 14 14
25 24 24 24 24 24 24 24 25 26 26 25 24 23 21 20 19 18 18 18 18 18 18 18 18 19 19 18 18 17 16 14 14 14 14 14 15 15 15 14 12 11 10 12 12 12 11 11 11 12 14 14 15 15 15 14 13 12 11 9 8 7 7 7 8 8 10 11 12 13 12 11 12 13 12 11 12 11 12 12 13 14 14 13 13
24 23 23 24 23 23 23 22 23 24 25 25 24 23 21 19 18 16 16 17 17 17 17 17 18 18 17 17 16 16 14 13 13 13 14 13 14 14 14 13 11 10 9 11 12 12 11 11 11 12 12 12 14 15 14 14 13 12 11 9 8 7 6 6 6 7 8 9 10 11 10 9 9 11 12 12 12 11 12 12 13 13 12 12 13
23 23 23 23 23 22 22 21 22 24 24 24 23 22 21 19 17 15 14 15 16 17 17 17 17 16 16 15 15 14 13 13 13 13 13 13 13 13 12 11 10 9 9 9 10 11 10 10 11 12 12 11 12 13 13 13 12 12 11 9 8 7 7 7 6 5 7 7 8 10 9 9 10 12 12 11 11 11 12 12 12 11 10 12 13
23 23 24 23 22 22 22 21 21 22 24 23 23 22 21 19 17 15 13 13 14 16 16 17 17 16 15 15 14 14 13 13 13 13 13 12 11 10 10 9 9 8 8 8 8 8 8 10 11 12 12 11 11 11 11 10 10 9 8 8 6 6 7 7 6 5 6 6 7 9 9 10 11 11 12 11 11 10 12 12 10 10 10 11 12
24 24 25 24 23 22 21 21 21 22 23 23 22 22 21 19 17 15 13 13 14 15 16 16 16 16 15 15 14 13 13 13 12 12 11 11 10 9 9 8 8 7 7 7 7 6 7 9 10 11 12 11 10 10 9 8 7 7 6 6 5 4 6 7 7 6 6 6 7 8 9 10 11 10 11 11 10 10 11 11 10 11 11 11 10
24 25 26 25 25 23 21 21 22 22 23 23 22 21 20 19 17 15 14 13 14 15 15 15 15 16 15 14 14 13 13 12 12 11 11 10 9 9 9 8 8 7 7 6 6 5 6 8 9 10 11 11 11 9 8 7 6 6 5 5 4 4 7 9 8 7 6 6 6 7 7 8 10 10 10 10 10 10 10 10 10 11 10 9 9
23 25 26 26 26 24 22 21 21 23 23 23 22 21 19 18 17 16 15 14 14 15 15 15 16 15 15 14 14 13 13 12 11 11 10 10 10 9 9 9 9 8 7 6 5 6 7 8 9 9 9 10 11 10 8 6 5 5 5 5 4 6 9 10 9 7 6 6 6 6 6 7 9 10 10 10 10 10 10 10 10 10 9 8 8
23 26 26 26 25 24 23 21 21 21 23 23 22 21 19 18 18 17 15 15 15 16 15 15 15 15 14 14 13 13 12 11 11 10 10 9 8 8 9 9 9 8 7 7 6 7 8 9 9 9 9 9 11 10 9 7 6 5 5 5 6 8 11 10 9 7 6 6 6 6 6 7 9 9 10 10 9 9 9 9 9 9 8 8 8
23 24 25 24 24 24 23 22 21 22 23 23 22 21 20 20 19 17 16 16 16 16 15 15 14 14 14 13 13 12 11 11 10 10 9 8 8 7 8 9 9 8 7 7 7 9 10 10 10 9 9 9 10 10 10 9 8 6 5 6 6 9 11 11 9 7 6 5 5 6 6 7 8 8 9 9 10 9 9 9 9 8 7 8 9
21 22 23 23 23 23 23 23 21 23 24 23 22 21 20 20 19 18 17 17 16 15 14 14 14 14 13 13 12 11 11 10 10 9 9 8 8 7 6 8 9 8 7 7 7 9 11 10 10 9 10 10 9 9 9 9 8 6 6 6 6 8 11 11 9 7 6 5 5 5 6 6 7 7 8 9 9 9 8 9 9 8 8 9 8
20 20 21 22 22 22 23 23 22 23 24 24 23 21 20 19 18 17 17 16 15 14 13 13 13 13 12 12 11 11 11 9 9 9 8 8 8 7 6 7 9 9 8 7 7 9 10 9 8 8 9 9 9 9 9 8 7 6 6 6 7 9 11 12 10 7 6 5 4 5 5 6 6 6 7 8 9 10 8 8 8 8 8 8 7
20 20 20 21 21 21 21 21 22 23 23 23 23 21 19 18 17 16 16 15 14 13 13 12 13 12 12 11 11 11 10 9 9 8 8 8 7 7 6 6 8 8 8 7 7 8 9 9 7 7 8 8 8 8 8 8 7 6 6 6 6 9 12 12 10 7 5 4 3 4 4 5 5 5 7 7 9 9 9 8 8 7 8 8 7
21 21 20 20 21 21 20 20 21 21 22 22 22 21 19 17 17 16 15 15 14 13 13 13 12 12 11 10 9 9 9 9 8 7 7 7 7 7 7 6 7 7 8 7 7 8 8 8 7 7 7 8 8 7 7 7 6 6 6 7 6 8 11 11 10 7 5 4 2 2 3 4 5 6 7 7 8 8 8 9 7 7 8 7 6
21 21 21 21 22 22 21 21 21 21 21 21 21 20 18 18 17 16 16 15 14 13 13 13 12 11 9 8 7 7 7 7 7 6 5 6 7 8 8 7 7 7 8 8 7 7 7 7 7 7 7 7 7 7 6 6 6 6 6 7 7 7 10 10 9 7 5 3 2 2 3 4 5 6 7 7 7 6 7 8 7 7 7 7 5
22 22 22 22 22 22 21 21 21 21 21 21 21 19 19 18 18 17 16 16 14 13 12 11 11 9 7 6 6 7 7 7 7 6 6 7 7 8 8 8 8 8 8 8 7 6 7 7 7 7 6 6 7 6 6 5 6 6 5 7 7 7 9 9 8 7 5 4 2 2 3 3 5 6 7 7 7 6 7 8 7 7 6 6 5
22 23 22 22 22 22 22 22 20 20 21 20 20 19 19 19 17 16 16 16 14 13 12 10 9 8 7 6 6 6 6 7 7 7 7 7 8 8 9 9 10 10 9 7 7 6 6 7 7 6 5 5 5 4 5 5 5 5 5 6 6 6 8 9 9 8 6 4 3 3 3 3 5 6 7 7 6 6 7 7 7 7 6 6 5
20 21 23 22 22 21 20 21 19 19 20 19 20 18 18 19 17 16 16 15 13 12 11 10 9 8 7 7 7 7 6 7 7 7 7 7 8 8 9 9 10 9 8 6 6 6 6 6 6 6 5 4 3 2 3 4 4 4 5 5 6 6 6 8 8 8 6 4 4 4 4 4 4 5 6 7 7 7 7 7 7 7 6 6 6
17 19 21 21 19 16 16 19 18 19 19 18 19 18 18 18 17 16 16 14 12 11 11 10 9 8 8 7 7 7 7 7 7 7 7 7 7 8 10 10 9 7 6 6 6 5 5 5 4 5 5 5 4 3 3 3 2 3 4 4 5 5 5 5 7 7 6 5 4 4 4 4 4 5 6 7 7 7 6 6 6 6 7 6 6
11 13 15 16 15 13 15 17 17 19 20 19 18 17 17 17 16 15 14 13 11 10 10 9 8 8 8 7 7 7 7 7 7 6 6 7 7 8 9 9 7 6 5 5 5 5 5 3 3 3 4 5 5 4 4 3 1 1 3 4 4 4 4 4 5 6 6 6 5 5 5 4 4 4 5 6 7 7 6 5 6 6 6 7 6
5 7 11 14 15 15 16 17 17 20 20 18 17 16 16 16 16 14 13 13 11 10 9 9 8 7 7 7 7 6 6 6 6 6 6 7 7 7 8 7 5 5 4 4 4 4 4 3 2 2 3 4 4 4 4 3 1 0 1 3 4 3 3 4 5 5 7 6 6 5 5 4 4 4 4 5 6 6 6 6 5 5 5 6 6
7 8 13 16 18 18 18 18 18 19 18 16 15 15 15 16 16 14 12 12 11 10 9 9 8 7 6 6 6 6 6 6 6 6 6 6 7 6 6 6 5 6 6 4 4 4 4 3 3 2 2 3 3 3 3 3 1 1 1 3 4 3 3 4 4 5 6 6 7 6 5 5 4 4 4 4 5 5 6 6 6 5 5 5 5
14 16 16 16 18 19 19 20 18 17 16 15 14 14 14 15 15 13 12 11 10 11 10 9 8 7 6 6 6 6 6 6 6 5 5 6 6 5 5 5 5 6 7 6 5 5 5 4 3 3 3 2 3 3 3 3 2 2 2 3 4 2 3 4 4 4 6 7 7 6 5 5 4 4 4 3 4 6 5 6 6 6 5 5 5
20 22 19 18 19 20 20 20 18 17 16 15 14 14 14 14 14 13 12 10 9 9 9 8 8 7 7 7 6 5 5 5 5 6 7 7 6 5 5 5 4 5 6 6 6 5 5 6 5 4 4 3 3 3 3 4 4 4 4 4 4 3 2 4 5 5 7 7 7 7 6 5 4 4 4 3 4 6 5 4 5 6 6 6 5
24 22 20 20 19 19 20 19 18 17 16 16 15 13 13 13 12 12 10 9 7 7 7 7 7 7 7 6 5 4 4 5 6 8 8 7 5 4 4 4 4 3 4 4 5 5 6 7 6 6 6 4 4 4 4 4 5 5 5 5 4 3 3 4 5 6 8 8 8 8 6 5 5 5 5 4 5 6 5 3 4 5 6 6 6
26 23 21 19 18 17 17 18 18 17 16 16 14 12 12 11 10 9 8 6 5 5 5 5 6 6 5 5 5 5 5 6 8 9 7 5 4 4 4 4 4 4 4 5 6 7 8 8 7 8 8 7 6 5 5 5 6 6 5 5 5 5 5 5 5 6 7 8 9 8 8 7 6 5 6 5 6 6 7 5 4 4 4 6 6
26 21 20 19 17 17 17 18 18 17 17 16 13 11 10 9 8 7 5 4 4 4 4 4 4 5 5 5 5 5 6 6 7 7 5 4 4 4 5 6 7 7 7 7 8 8 9 9 9 9 9 8 6 6 6 6 6 5 4 5 5 5 5 6 6 6 7 8 9 10 9 8 7 6 6 6 6 7 7 7 6 5 3 4 5
22 18 19 19 18 17 17 18 19 19 18 15 12 10 9 8 6 5 3 2 2 2 3 3 3 4 5 4 5 6 6 6 6 5 5 6 5 4 4 6 8 9 10 9 9 9 9 10 10 10 9 8 7 6 6 5 4 3 3 4 6 6 6 6 7 7 7 9 10 11 10 9 8 7 7 6 6 6 7 7 7 6 5 4 3
17 18 19 19 19 17 17 19 20 20 18 16 13 10 9 7 5 4 2 2 3 2 2 2 2 3 3 3 5 6 5 5 5 4 4 6 6 5 5 6 8 9 10 10 10 9 9 10 9 9 9 9 8 6 6 4 3 4 5 6 7 7 7 6 5 6 7 9 11 12 12 11 10 9 9 8 7 7 7 7 6 6 6 5 4
14 17 19 19 19 19 19 20 20 20 18 16 13 11 9 7 5 4 4 5 6 5 5 4 4 3 2 2 2 2 2 3 3 2 3 5 6 6 6 6 7 8 9 10 10 9 8 9 10 9 8 8 7 7 7 5 4 6 8 8 8 7 7 6 5 5 6 8 10 12 13 13 12 11 11 10 9 8 7 7 7 7 6 6 6
16 17 20 21 21 21 20 20 20 20 18 16 13 11 9 7 7 6 7 8 8 9 8 7 6 5 3 3 2 2 2 2 2 1 2 3 3 5 6 6 7 8 8 9 9 9 9 9 10 10 7 6 6 7 8 8 8 9 10 9 8 7 6 5 5 5 5 7 9 11 13 14 13 13 13 12 11 10 9 9 8 8 7 7 7
20 21 23 24 23 23 21 20 20 19 17 15 13 13 11 9 8 9 10 11 10 11 10 8 7 6 5 5 5 5 5 4 4 3 2 2 3 4 5 6 8 8 9 9 9 11 11 10 10 11 9 6 8 10 10 12 12 10 9 9 8 7 6 5 4 4 4 4 5 8 10 11 13 13 13 14 13 12 11 12 11 10 9 8 8
20 21 22 24 24 24 23 22 21 20 18 16 16 15 14 12 11 12 12 12 12 11 10 9 7 6 6 5 5 5 6 6 6 5 4 3 4 5 6 7 7 9 9 8 7 8 9 8 9 10 8 7 10 12 13 14 14 10 6 6 5 5 6 5 3 3 3 3 3 4 6 7 9 10 11 13 14 14 13 14 14 13 13 12 12
18 19 22 24 24 24 25 24 23 21 18 17 18 17 15 13 12 13 13 13 12 10 9 8 6 6 5 5 4 4 4 5 6 6 5 4 4 5 5 6 7 8 8 5 4 4 4 5 5 8 9 10 11 13 14 12 9 8 6 4 2 2 4 4 5 5 5 5 5 4 5 6 5 6 7 8 10 12 12 13 14 14 16 17 16
17 19 22 23 24 24 25 25 24 22 19 19 20 17 15 13 12 13 13 12 10 8 7 6 5 4 4 3 2 2 3 4 6 6 5 4 4 3 4 5 5 6 5 4 3 4 4 4 5 8 8 9 11 11 12 9 6 7 5 3 1 1 1 2 4 6 5 6 6 7 7 6 5 5 5 5 7 8 9 11 11 12 15 16 17
16 20 22 23 25 27 28 27 25 23 21 22 21 18 16 13 12 13 11 10 8 7 6 6 6 4 3 2 2 3 3 2 4 6 6 5 5 3 3 3 3 3 4 5 5 5 5 6 8 9 6 7 9 7 9 10 9 7 4 2 0 1 0 2 2 4 5 6 6 6 5 4 5 3 3 5 7 7 6 7 8 10 12 13 15
18 21 22 23 27 29 30 29 26 24 24 24 22 18 16 14 14 13 11 10 9 9 8 8 7 6 4 3 4 5 4 2 3 4 5 5 5 4 3 3 3 4 4 5 6 6 6 6 7 8 5 5 5 7 8 9 9 8 6 3 1 0 1 2 2 2 2 4 5 4 3 3 4 4 3 6 6 5 6 7 6 8 10 10 12
21 22 23 25 28 30 30 29 28 27 26 24 21 18 15 15 15 15 14 13 13 12 11 10 9 7 6 5 5 6 5 4 3 3 3 4 5 4 3 4 4 5 4 3 4 5 6 7 7 7 5 5 5 9 12 9 6 7 7 6 4 3 3 4 2 1 1 1 2 2 2 0 2 4 5 5 5 4 5 6 5 6 8 8 9
23 23 24 25 27 30 30 30 29 29 26 23 21 17 15 15 15 16 16 16 15 14 11 10 9 8 8 7 6 5 5 4 3 3 4 4 4 4 4 5 5 6 6 5 4 3 4 6 6 6 5 4 4 6 11 11 8 6 6 6 5 4 6 6 3 2 2 2 3 5 6 5 3 2 4 5 4 3 4 4 3 4 6 6 6
23 24 25 25 26 27 29 30 29 27 26 24 21 18 17 17 16 16 16 15 14 13 12 10 9 9 9 8 6 5 4 3 3 4 5 4 4 3 4 4 6 7 7 7 7 6 5 4 5 5 5 5 3 3 6 9 9 7 6 6 4 5 6 6 4 3 4 2 2 6 11 12 11 9 5 3 2 3 3 3 4 4 4 5 5
23 24 21 14 10 12 17 23 27 26 25 24 22 19 17 17 18 18 17 15 12 12 12 11 10 9 8 7 6 5 4 4 3 4 5 5 4 4 4 5 5 6 5 6 6 6 6 5 5 4 4 4 4 3 3 6 7 8 7 5 6 7 6 6 6 6 5 3 2 2 7 13 17 18 17 13 10 6 4 2 2 3 4 5 5
16 10 12 16 15 12 13 18 24 26 25 24 23 21 18 18 18 18 17 15 14 14 13 11 10 9 7 7 7 6 5 5 6 6 6 6 5 5 5 5 5 4 4 5 6 6 6 6 7 6 6 6 6 6 5 5 5 6 7 8 7 7 6 5 6 8 6 5 5 3 4 10 13 17 23 24 21 19 16 13 10 9 7 5 3
14 23 25 20 14 14 20 20 19 20 22 22 22 21 19 18 17 17 16 15 15 15 15 13 11 9 8 8 7 7 7 6 7 7 7 6 5 5 5 5 5 4 5 5 5 5 6 8 9 9 9 10 10 9 8 7 6 6 7 8 7 5 4 3 4 6 5 6 6 3 4 10 11 13 20 25 26 25 23 22 21 19 18 16 13
Wind_Direction
159 158 152 154 155 158 156 152 148 143 138 131 129 128 129 128 129 132 135 137 140 139 138 136 134 134 134 134 134 134 134 133 131 128 125 124 123 123 122 118 114 114 115 117 121 123 122 122 121 120 118 116 115 114 115 116 114 112 113 113 111 112 112 109 107 106 105 103 100 99 102 102 100 100 98 95 92 91 94 92 89 87 81 76 74
156 155 152 154 156 158 158 153 150 144 139 135 132 133 132 130 130 132 135 137 140 142 142 140 136 135 134 134 135 135 134 133 131 128 125 124 121 119 118 115 113 113 113 118 122 122 121 122 122 122 120 119 118 116 117 117 116 115 116 118 119 115 114 115 112 109 106 102 100 100 101 102 100 98 96 95 93 91 91 90 89 88 82 77 74
150 150 150 151 155 158 156 152 149 144 142 139 136 135 133 132 132 132 133 134 137 139 140 139 137 136 134 134 134 133 132 131 129 126 124 119 114 111 113 114 113 113 111 114 118 121 122 123 123 122 122 122 121 119 119 119 121 123 120 122 121 112 113 117 113 111 110 107 105 103 100 100 100 98 98 98 95 92 88 86 87 85 81 75 71
151 147 147 149 154 158 155 153 151 147 146 142 138 136 135 134 133 133 133 133 134 136 137 137 137 136 134 133 132 131 130 128 126 123 120 115 110 107 109 113 115 116 114 111 113 118 120 121 123 122 122 123 123 123 123 122 124 125 123 122 118 111 112 114 112 113 115 113 110 109 105 100 99 98 97 96 95 92 89 85 85 84 81 76 71
152 148 150 152 154 158 156 156 154 150 149 143 139 138 137 136 134 134 134 133 134 137 139 137 136 135 133 131 129 127 126 124 122 121 120 118 115 111 111 114 117 119 117 115 113 113 117 121 121 122 123 124 125 124 125 126 124 123 120 117 112 110 108 107 109 111 112 110 106 106 104 102 102 101 99 99 98 94 93 91 87 84 81 77 74
152 151 154 154 153 156 156 157 156 151 149 145 140 140 138 137 136 135 135 135 136 139 140 139 137 134 131 128 126 125 125 124 122 123 123 123 121 115 111 112 116 116 115 116 117 115 115 122 124 124 125 126 126 128 130 127 123 119 116 113 109 106 104 103 104 106 108 106 104 104 104 104 101 100 101 99 99 97 97 95 90 86 81 77 75
149 150 151 152 151 154 158 159 158 153 150 147 142 141 140 138 136 135 136 137 137 139 138 138 136 132 129 128 128 127 127 125 124 122 122 125 123 117 111 109 112 114 114 118 126 123 116 118 124 125 127 128 129 133 133 127 123 119 117 113 109 105 103 102 100 103 106 106 107 108 108 106 102 103 101 99 101 98 97 96 94 90 83 78 76
147 149 151 151 152 155 160 161 160 155 152 147 143 143 140 137 136 135 138 140 140 140 138 136 134 132 132 134 131 130 129 126 125 121 121 122 120 117 111 109 115 117 115 118 122 119 112 109 116 125 127 129 131 135 135 129 126 123 121 118 113 107 103 102 100 103 106 108 110 110 109 107 107 105 100 100 101 100 100 98 96 91 84 80 76
148 150 151 152 153 156 159 161 159 155 152 148 145 144 142 138 136 136 138 142 143 142 140 138 138 137 137 138 135 134 132 129 126 123 123 121 119 118 116 119 124 120 115 117 114 108 105 104 113 127 129 131 135 136 137 135 131 130 125 125 124 110 101 104 103 104 108 109 113 117 116 114 115 109 104 102 103 105 105 100 97 92 87 83 78
147 149 151 152 152 154 155 157 157 153 151 148 146 145 143 141 139 138 140 143 145 144 142 142 142 141 141 141 139 136 134 132 128 125 125 125 125 125 127 131 130 123 117 120 119 109 106 110 118 130 134 137 140 139 141 139 137 138 135 134 133 120 108 109 108 109 112 113 115 122 125 127 126 115 109 106 105 103 98 95 94 91 89 87 81
145 148 151 151 150 153 152 154 155 153 152 149 147 146 145 144 143 143 142 144 144 145 145 145 144 144 145 142 140 138 136 134 130 128 129 130 132 133 135 137 135 129 121 122 123 114 109 116 124 134 138 138 139 141 146 146 144 147 148 145 139 138 136 130 126 119 119 120 118 121 126 126 117 110 110 107 105 102 97 95 93 93 94 90 82
145 149 149 149 150 151 151 152 154 154 153 149 147 146 147 147 147 148 147 145 145 147 146 145 145 145 145 143 141 140 138 134 133 132 131 133 135 138 139 138 138 133 127 126 126 116 108 115 126 134 139 141 142 148 153 156 157 160 162 153 146 155 156 146 144 138 131 128 122 120 121 115 107 109 112 109 105 104 101 96 97 97 94 90 83
146 149 148 148 150 151 150 151 152 154 154 151 148 148 149 150 151 154 152 149 148 149 147 146 145 144 143 143 142 139 137 134 133 133 133 136 137 139 139 137 136 136 133 129 127 117 108 115 125 130 136 144 150 156 159 161 163 166 165 155 155 162 158 155 157 154 143 135 128 121 117 113 112 116 117 113 109 107 103 101 102 96 88 90 88
148 151 149 149 150 149 149 151 152 154 156 154 151 151 152 153 155 158 158 154 152 151 149 148 146 144 143 142 141 138 137 135 133 133 134 136 135 137 138 137 134 136 136 133 135 120 108 119 127 131 137 145 152 159 160 162 161 158 152 148 160 156 157 163 163 159 148 140 132 124 120 117 119 121 118 115 113 111 109 105 101 97 93 95 93
151 152 151 151 150 149 151 153 153 155 157 156 154 154 155 156 158 162 161 157 154 153 151 148 146 144 143 142 140 138 137 136 133 132 133 134 134 136 137 138 136 137 139 139 139 119 108 119 126 131 138 144 152 162 162 161 154 147 135 136 155 149 153 155 154 157 147 143 137 127 122 121 126 124 119 116 114 114 114 109 103 102 99 98 96
154 154 153 153 152 151 153 155 153 155 156 157 159 158 160 160 160 161 160 158 156 154 151 147 145 143 143 142 140 138 137 134 131 132 132 134 137 140 143 143 141 144 143 141 134 113 108 114 117 121 130 140 149 160 163 160 150 138 118 126 148 148 152 147 144 150 144 142 133 123 118 119 125 125 125 122 118 117 115 114 109 105 102 99 96
157 158 156 154 154 153 155 155 152 153 156 159 162 162 163 162 159 158 158 160 158 155 152 148 147 146 145 141 139 137 134 133 132 133 132 133 135 136 141 142 142 146 145 139 124 111 112 112 108 109 118 133 145 153 157 153 144 131 104 117 148 155 156 149 141 143 142 143 132 122 115 115 124 128 129 125 121 119 118 117 112 108 106 103 96
159 159 156 155 156 156 155 154 152 154 157 160 164 164 164 160 157 158 160 162 160 157 153 150 150 148 145 140 138 136 133 133 134 135 134 132 129 128 134 140 140 140 140 132 117 116 120 117 107 101 105 119 134 144 149 149 143 127 99 113 151 166 163 155 148 146 143 143 134 125 120 119 128 135 134 129 124 121 121 121 117 110 102 99 96
158 157 155 156 157 156 153 151 154 157 159 163 166 165 162 159 158 161 164 165 162 157 153 151 149 146 143 140 139 136 133 134 135 137 138 136 134 134 133 137 137 133 132 124 115 123 129 125 114 104 100 107 121 133 140 143 141 124 101 115 152 172 169 163 158 155 153 150 138 129 126 129 137 141 141 136 129 125 125 124 122 117 107 102 100
155 155 155 156 156 154 152 152 158 161 164 167 167 165 161 159 159 163 165 164 162 157 153 151 147 144 144 143 142 140 138 137 138 139 141 143 143 142 138 134 134 134 136 130 122 128 138 138 125 114 108 106 113 125 133 137 135 120 101 112 150 170 171 167 164 163 164 158 145 138 135 138 145 147 147 142 134 133 132 128 128 125 117 112 106
155 157 156 157 157 154 152 154 160 165 168 169 167 164 160 159 160 164 165 164 160 157 155 153 151 150 152 152 150 147 144 142 141 142 144 146 148 148 145 139 136 138 143 141 135 136 144 149 141 127 121 116 115 121 130 133 128 118 99 97 139 166 170 169 167 169 174 169 154 149 148 147 152 153 152 146 140 141 135 131 132 126 121 119 116
158 158 158 161 159 155 155 158 164 169 170 170 168 163 159 160 163 165 166 162 159 161 158 157 160 158 157 156 152 151 150 148 147 149 149 153 157 156 153 150 146 147 153 154 150 148 149 151 149 139 132 127 122 121 127 132 125 117 101 94 120 157 170 173 170 173 180 176 169 166 163 157 156 158 159 153 150 152 141 133 133 129 126 125 121
161 161 162 165 162 159 160 162 167 171 170 170 168 163 162 164 166 167 164 160 162 167 163 163 167 162 156 152 148 150 153 154 153 157 161 166 169 166 162 161 162 162 166 168 162 159 159 157 153 148 143 135 130 126 126 134 128 119 109 100 112 148 168 175 176 180 186 189 192 197 189 170 163 166 168 161 161 163 146 139 137 134 133 131 124
164 164 165 168 166 161 162 165 168 170 168 168 168 165 166 168 169 168 164 163 167 171 168 168 168 161 156 153 150 152 155 158 160 168 177 179 179 175 171 171 175 178 180 178 173 170 171 172 168 161 154 145 140 132 129 136 132 123 120 114 114 141 167 176 182 185 188 200 218 233 218 188 172 173 176 170 168 162 147 146 143 141 138 133 127
165 165 166 167 166 162 164 167 168 168 168 169 169 169 171 172 170 169 168 170 174 173 172 172 169 167 165 160 160 162 164 170 178 184 188 190 187 185 184 185 184 185 187 184 181 185 185 184 183 176 168 163 152 140 135 140 137 124 126 128 121 133 161 173 183 191 192 205 232 247 238 208 184 180 183 179 177 167 155 154 150 147 143 134 130
165 165 167 168 166 164 168 168 167 170 170 171 172 172 173 173 173 173 174 177 179 177 177 178 176 176 174 174 172 173 181 187 195 201 203 204 199 198 199 198 194 189 188 187 191 198 196 191 195 196 196 196 185 171 155 147 145 128 122 130 128 129 150 169 181 191 196 208 233 253 249 224 194 184 188 188 187 176 165 163 158 154 147 138 134
169 170 169 168 163 162 170 170 168 172 174 175 175 174 172 175 176 177 181 183 183 183 185 186 186 185 182 185 184 186 194 199 210 216 219 221 215 211 209 207 200 192 189 194 203 210 208 199 202 211 220 226 223 212 193 168 151 130 124 131 134 134 143 166 180 190 198 208 227 252 254 237 205 192 193 196 197 185 175 173 166 160 151 144 140
184 172 165 160 158 165 177 175 171 175 178 179 179 177 175 178 181 182 186 188 190 192 193 195 195 193 190 191 193 198 205 210 220 225 229 233 231 224 217 211 198 187 193 206 210 215 221 217 217 230 239 246 241 220 201 188 165 119 134 143 150 146 147 167 177 188 197 204 223 246 252 243 220 212 200 197 203 192 187 187 176 170 162 152 146
200 161 164 169 175 183 185 181 177 179 182 182 182 182 181 182 187 192 192 192 198 200 200 203 204 203 200 195 197 204 212 221 227 229 236 240 244 239 228 217 194 182 198 217 222 218 228 230 236 256 262 257 245 220 206 198 199 191 154 152 157 144 149 178 181 189 196 204 226 241 249 248 234 232 216 197 204 200 194 199 192 183 178 166 157
166 173 186 189 192 192 191 190 186 185 186 188 188 189 188 188 195 202 199 197 200 202 206 209 212 217 216 212 214 219 224 232 234 233 239 246 250 244 237 229 204 191 194 208 219 220 226 230 243 273 275 250 229 216 219 218 222 254 216 167 159 137 136 181 193 199 201 210 228 237 244 248 243 240 234 207 197 203 200 203 207 197 193 183 172
166 186 200 201 198 195 196 197 195 194 194 196 197 196 197 195 200 204 204 203 201 203 210 214 218 227 234 240 242 239 234 232 230 230 241 250 249 241 240 240 222 208 202 200 203 207 216 227 240 260 265 241 219 220 233 241 246 268 252 198 178 152 138 175 198 208 205 215 229 235 237 242 248 245 248 240 194 201 210 206 211 206 204 202 188
181 188 198 202 201 199 198 199 201 202 202 203 202 200 200 199 202 206 209 212 205 205 213 222 232 238 242 247 247 240 225 220 220 227 239 243 241 239 243 245 232 215 206 200 198 203 218 235 246 265 283 291 281 270 258 261 265 271 261 227 201 197 176 180 202 216 211 219 231 233 233 236 246 245 249 259 210 205 216 206 210 210 210 210 200
187 190 197 198 198 199 197 200 205 207 208 207 204 200 199 199 204 208 214 218 212 214 222 230 243 249 245 239 232 216 200 207 216 223 230 234 235 230 235 240 234 225 212 204 210 222 234 244 258 275 274 248 254 266 255 261 274 275 263 240 224 234 243 214 212 223 223 228 234 236 235 233 239 245 246 257 237 219 226 221 215 214 212 214 203
184 189 195 193 192 196 199 203 207 209 210 208 205 197 195 197 202 208 215 224 228 237 243 246 253 259 252 232 210 190 186 204 215 220 222 230 239 223 213 217 220 233 237 228 231 238 243 250 259 267 254 225 224 238 236 253 276 276 257 241 240 251 251 233 228 233 235 237 240 240 240 237 235 241 244 250 245 230 232 239 244 227 213 216 205
181 186 190 188 187 195 203 205 207 209 208 208 203 193 191 191 194 203 212 232 254 264 269 267 257 252 247 224 199 184 186 202 213 220 220 226 237 224 215 216 219 227 235 236 235 238 243 247 250 254 249 233 231 240 235 247 271 268 247 237 234 238 234 227 231 237 237 238 241 244 248 248 242 241 243 246 247 238 235 240 252 253 231 222 208
180 186 188 185 185 193 204 208 207 208 207 205 198 187 182 180 186 198 212 230 246 260 268 265 246 238 237 214 188 184 195 210 217 221 221 222 228 224 215 218 227 232 235 235 230 232 240 243 244 249 247 234 234 242 234 237 251 238 222 218 209 206 208 209 218 228 233 234 239 245 250 254 252 250 247 246 250 249 244 240 247 253 250 246 215
184 191 189 186 188 192 202 210 209 206 204 199 189 179 175 175 182 185 182 166 159 176 196 196 200 217 225 203 190 193 198 206 210 211 216 224 229 228 229 227 228 232 237 239 236 235 238 240 240 241 239 230 224 217 203 197 211 205 190 191 191 188 191 193 200 214 227 231 234 241 248 252 253 253 253 252 254 257 258 253 249 252 252 253 242
195 198 194 193 196 198 204 211 209 205 202 193 180 172 173 174 169 161 151 144 138 135 133 138 139 154 184 186 205 203 176 186 200 211 224 235 229 219 229 237 233 233 235 239 243 241 237 236 235 235 233 225 211 191 184 184 192 194 181 175 177 177 184 194 204 213 227 235 235 238 245 249 251 251 253 253 254 258 264 264 257 254 253 249 245
200 201 199 199 202 201 205 209 206 203 199 189 175 167 172 170 157 146 143 139 131 125 124 127 124 126 134 121 99 92 112 153 181 212 225 232 218 207 219 229 230 231 230 233 240 244 240 232 229 229 225 211 192 181 185 189 190 188 179 167 164 166 170 181 200 209 219 231 237 241 245 248 249 249 251 252 254 256 260 264 261 257 257 254 248
201 201 199 201 200 198 202 206 203 201 195 184 173 169 168 162 152 145 143 139 132 127 126 128 127 123 120 113 104 103 106 104 103 121 151 172 182 193 211 222 227 228 231 236 241 245 243 237 231 226 220 193 175 175 171 170 170 167 166 161 155 156 154 155 161 164 180 205 224 235 242 247 247 246 248 251 254 257 258 259 260 259 260 261 258
201 201 197 196 197 198 200 201 200 199 195 184 174 171 166 159 153 148 145 142 139 135 134 137 135 126 116 110 108 104 103 102 100 103 114 141 169 182 201 216 221 224 232 239 245 246 240 238 232 222 215 186 173 174 166 164 160 150 151 157 154 163 170 176 185 182 189 194 195 209 224 238 245 249 253 256 259 263 268 270 272 272 270 271 271
199 200 197 195 195 199 200 199 196 198 198 188 177 170 166 164 158 152 149 146 144 142 142 144 140 130 119 110 100 89 96 113 116 107 106 128 158 178 196 211 220 227 230 228 236 237 228 234 231 221 212 194 185 177 170 171 166 156 150 135 122 166 196 210 219 224 225 219 215 208 211 222 235 256 270 273 273 268 265 272 280 283 284 282 280
199 201 201 198 196 198 200 198 193 195 198 189 177 168 165 165 159 155 153 148 145 147 149 151 150 146 138 123 98 83 86 107 123 118 114 129 146 171 190 205 223 229 216 199 213 219 209 211 222 229 214 192 194 187 182 191 184 163 140 110 102 98 228 232 213 213 213 209 217 220 223 233 240 261 289 302 303 287 260 263 274 278 284 283 279
197 197 198 198 196 197 199 196 192 194 192 183 176 168 162 161 159 158 157 152 149 155 161 162 169 176 169 138 108 118 108 102 129 126 124 129 132 142 167 189 199 190 180 191 208 218 216 210 221 233 216 188 194 174 182 203 198 177 135 73 49 80 284 249 192 200 204 203 214 219 220 230 234 257 302 274 285 305 281 270 279 274 278 283 281
199 198 198 198 197 197 197 193 191 190 185 179 175 168 162 159 159 157 155 152 151 158 164 164 170 173 164 139 117 121 119 122 150 143 136 136 133 130 127 135 136 126 137 176 194 205 220 224 238 242 227 218 201 130 154 204 203 191 181 146 114 67 240 190 133 157 189 200 208 209 204 218 240 268 299 259 262 306 292 274 285 279 281 287 282
199 201 201 200 198 197 195 191 188 184 179 178 175 170 166 166 166 164 159 157 156 163 167 163 163 160 151 141 126 121 113 115 153 164 156 153 144 136 122 108 101 103 109 135 176 194 211 220 241 249 240 246 216 150 158 184 185 181 186 183 182 188 175 149 132 143 102 141 186 176 176 283 294 291 301 281 271 303 298 285 296 289 280 276 275
199 200 199 197 196 195 191 186 183 179 177 178 176 173 171 172 176 175 170 168 168 171 175 169 164 158 151 143 132 122 108 102 136 166 172 165 149 140 132 118 105 103 102 97 103 131 179 201 220 238 238 243 233 174 164 168 162 150 153 171 182 168 155 146 142 148 101 39 28 61 68 57 30 343 309 289 266 283 310 304 300 297 284 276 281
196 195 196 195 194 190 183 178 176 175 176 177 180 179 176 174 176 175 173 176 175 174 175 171 165 161 154 146 138 128 114 104 135 166 177 167 148 146 144 133 120 109 101 95 91 94 113 153 179 198 212 218 229 206 175 175 177 169 148 140 139 139 143 143 140 134 120 98 33 59 71 71 64 57 35 344 278 267 292 295 284 290 301 303 302
197 198 195 184 165 153 157 166 172 176 177 179 182 181 179 177 176 174 171 171 173 172 171 171 170 170 163 151 142 134 120 115 135 159 171 163 152 160 161 150 135 119 106 99 94 97 104 118 141 162 175 182 179 162 160 171 185 197 183 145 123 120 116 113 115 114 114 123 134 94 79 74 67 65 69 72 75 76 70 47 359 334 329 321 312
192 159 99 80 83 109 153 174 179 179 178 181 182 178 178 179 177 177 174 169 169 169 170 174 179 182 176 157 143 135 127 124 135 145 152 153 151 162 169 166 155 138 125 111 101 102 104 108 114 122 127 124 116 111 117 134 157 179 183 175 144 111 94 81 87 99 103 96 102 115 91 84 76 69 71 74 77 78 78 78 74 67 61 53 46
108 85 78 80 103 159 192 194 186 180 177 181 182 178 179 184 184 185 184 177 174 173 174 179 183 184 177 159 147 143 141 139 141 142 143 144 149 163 176 176 164 145 131 116 105 107 109 109 108 107 109 103 97 97 98 111 130 133 147 168 160 127 122 112 82 88 91 91 103 107 93 98 96 83 73 71 73 77 78 78 77 76 75 75 79